Regional Weather Roundup
Issued by NWS Cleveland, OH

Home | Current Version | Previous Version | Graphics & Text | Print | Product List | Glossary On
Versions: 1 2 3 4 5 6 7 8 9 10 11 12 13 14 15 16 17 18 19 20 21 22 23 24 25 26 27 28 29 30 31 32 33 34 35 36 37 38 39 40 41 42 43 44 45 46 47 48 49 50
000
ASUS41 KCLE 240802
RWRCLE
OHIO REGIONAL WEATHER ROUNDUP
NATIONAL WEATHER SERVICE CLEVELAND, OH
300 AM EST WED JAN 24 2018

NOTE: "FAIR" INDICATES FEW OR NO CLOUDS BELOW 12,000 FEET WITH NO
SIGNIFICANT WEATHER AND/OR OBSTRUCTIONS TO VISIBILITY.

OHZ001>008-015>018-024>027-034-035-043-044-240900-
   NORTHWEST OHIO

CITY           SKY/WX    TMP DP  RH WIND       PRES   REMARKS
DEFIANCE       CLOUDY    30  22  72 NW9       30.12R WCI  22
FINDLAY        CLOUDY    31  21  66 NW10      30.10R WCI  22
TOLEDO EXPRESS CLOUDY    30  22  72 NW9       30.10R WCI  22
TOLEDO EXEC    CLOUDY    30  21  69 NW10      30.12R WCI  21
LIMA           CLOUDY    30  25  81 NW6       30.10R WCI  24
$$

OHZ009>014-019>023-028>033-038-089-240900-
   NORTHEAST OHIO

CITY           SKY/WX    TMP DP  RH WIND       PRES   REMARKS
CLE-HOPKINS    CLOUDY    29  23  78 N12       30.08R WCI  19
CLE-LAKEFRONT  CLOUDY    28  22  78 NW18      30.06R WCI  15
CUY CO. ARPT   NOT AVBL
LORAIN-ELYRIA  CLOUDY    28  18  66 N16       30.07R WCI  16
ASHTABULA      CLOUDY    25  21  85 NW12      30.02R WCI  14
AKRON-CANTON   CLOUDY    31  25  78 NW12      30.01R WCI  22
WOOSTER        CLOUDY    29  25  85 NW15G23   30.04R WCI  18
MANSFIELD      CLOUDY    29  24  82 NW12      30.05R WCI  19
YOUNGSTOWN     FRZ DRZL  29  27  92 W13       29.98R FOG     WCI  19
$$

OHZ042-051>053-060>062-070>072-077>081-240900-
  SOUTHWEST OHIO

CITY           SKY/WX    TMP DP  RH WIND       PRES   REMARKS
CINC-COVINGTON CLOUDY    32  28  85 NW13      30.17R WCI  22
CINC-LUNKEN    CLOUDY    33  26  75 NW10G17   30.21R WCI  25
HAMILTON       CLOUDY    32  26  78 W10G17    30.20R WCI  24
DAYTON         CLOUDY    30  28  92 W13       30.14R WCI  20
WRIGHT-PAT AFB CLOUDY    31  26  81 W10       30.13R WCI  22
DAYTON GENERAL CLOUDY    31  26  82 W10       30.14R WCI  22
WILMINGTON     CLOUDY    30  27  88 W12       30.14R WCI  20
$$

OHZ036-037-039>041-045>050-054>059-063>069-073>076-082>088-240900-
  CENTRAL AND SOUTHEAST OHIO

CITY           SKY/WX    TMP DP  RH WIND       PRES   REMARKS
COLUMBUS       FLURRIES  32  28  85 W14       30.10R WCI  22
OSU AIRPORT    CLOUDY    31  28  89 W13       30.10R WCI  21
BOLTON FIELD   CLOUDY    31  27  85 W9        30.11R WCI  23
RICKENBACK AFB CLOUDY    32  27  82 NW15G21   30.12R WCI  21
NEWARK         CLOUDY    32  25  75 W14G21    30.09R WCI  22
MARION         CLOUDY    30  23  75 NW10      30.09R WCI  21
LANCASTER      CLOUDY    32  26  78 NW8       30.11R WCI  25
ZANESVILLE     CLOUDY    33  25  72 W12       30.07R WCI  24
NEW PHILLY     NOT AVBL
$$



USA.gov is the U.S. government's official web portal to all federal, state and local government web resources and services.